This demonstration page uses our WeatherBlox Daily Observations layout. Learn more.

Left ArrowRight Arrow

31.31129, -92.44514

Hourly Observations for August 2, 2018

Temp ( °F °C ) Dew Point ( °F °C ) Humidity (%) Winds ( mph kmh ) Pressure ( in mb ) Visibility ( mi km ) Precip ( " mm )
12:53 am 00:53 Clear 73 22.8 68 20 84 84 NE 3 6 29.99 1016 10 16 0.00 0.00
1:53 am 01:53 Clear 72 22.2 67 19.4 84 84 ENE 3 6 29.98 1015 10 16 0.00 0.00
2:53 am 02:53 Clear 71 21.7 67 19.4 87 87 ENE 3 6 29.97 1015 10 16 0.00 0.00
3:53 am 03:53 Clear 69 20.6 66 18.9 90 90 Calm 29.98 1015 10 16 0.00 0.00
4:53 am 04:53 Clear 67 19.4 65 18.3 93 93 Calm 29.99 1016 8 13 0.00 0.00
5:53 am 05:53 Clear 67 19.4 66 18.9 97 97 Calm 30.00 1016 7 11 0.00 0.00
6:53 am 06:53 Sunny with Mist and Fog 67 19.4 66 18.9 97 97 NW 3 6 30.01 1016 6 10 0.00 0.00
7:53 am 07:53 Sunny 70 21.1 67 19.4 90 90 Calm 30.02 1017 8 13 0.00 0.00
8:53 am 08:53 Sunny 76 24.4 67 19.4 74 74 NNE 7 11 30.02 1017 10 16 0.00 0.00
9:53 am 09:53 Sunny 82 27.8 68 20 63 63 NE 7 11 30.02 1017 10 16 0.00 0.00
10:53 am 10:53 Sunny 85 29.4 68 20 57 57 VRB 6 9 30.02 1017 10 16 0.00 0.00
11:53 am 11:53 Sunny 87 30.6 66 18.9 50 50 N 6 9 30.02 1017 10 16 0.00 0.00
12:53 pm 12:53 Sunny 88 31.1 64 17.8 45 45 VRB 7 11 30.00 1016 10 16 0.00 0.00
1:53 pm 13:53 Sunny 91 32.8 63 17.2 39 39 NE 8 13 29.98 1015 10 16 0.00 0.00
2:53 pm 14:53 Sunny 92 33.3 59 15 33 33 N 8 13 29.96 1015 10 16 0.00 0.00
3:53 pm 15:53 Sunny 93 33.9 62 16.7 36 36 VRB 7 11 29.96 1014 10 16 0.00 0.00
4:53 pm 16:53 Sunny 93 33.9 60 15.6 33 33 N 8 13 29.95 1014 10 16 0.00 0.00
5:53 pm 17:53 Sunny 92 33.3 60 15.6 34 34 VRB 3 6 29.95 1014 10 16 0.00 0.00
6:53 pm 18:53 Sunny 90 32.2 62 16.7 39 39 NE 3 6 29.95 1014 10 16 0.00 0.00
7:53 pm 19:53 Sunny 82 27.8 69 20.6 65 65 Calm 29.96 1014 10 16 0.00 0.00
8:53 pm 20:53 Clear 76 24.4 68 20 77 77 Calm 29.97 1015 10 16 0.00 0.00
9:53 pm 21:53 Clear 74 23.3 70 21.1 88 88 Calm 30.00 1016 10 16 0.00 0.00
10:53 pm 22:53 Clear 73 22.8 70 21.1 90 90 Calm 30.01 1016 9 14 0.00 0.00
11:53 pm 23:53 Clear 76 24.4 64 17.8 67 67 NE 6 9 30.01 1016 10 16 0.00 0.00

Powered by AerisWeather